Regional Weather Roundup
Issued by NWS Charleston, WV

Home | Current Version | Previous Version | Text Only | Print | Product List | Glossary On
Versions: 1 2 3 4 5 6 7 8 9 10 11 12 13 14 15 16 17 18 19 20 21 22 23 24 25 26 27 28
000
ASUS41 KRLX 240110
RWRRLX
West Virginia Regional Weather Roundup
National Weather Service Charleston WV
900 PM EDT MON APR 23 2018

Note: "fair" indicates few or no clouds below 12,000 feet with no
significant weather and/or obstructions to visibility.

WVZ003-240200-
Northern Panhandle of West Virginia

CITY           SKY/WX    TMP DP  RH WIND       PRES   REMARKS
WHEELING       CLOUDY    64  35  34 SE15      30.20R
$$

WVZ009-240200-
Northwest West Virginia

CITY           SKY/WX    TMP DP  RH WIND       PRES   REMARKS
PARKERSBURG    CLOUDY    53  47  79 E8        30.21F
$$

WVZ006-240200-
Western West Virginia

CITY           SKY/WX    TMP DP  RH WIND       PRES   REMARKS
HUNTINGTON     FAIR      53  47  79 NE8       30.09S
$$

WVZ015-240200-
West Central West Virginia

CITY           SKY/WX    TMP DP  RH WIND       PRES   REMARKS
CHARLESTON     LGT RAIN  53  49  86 E7        30.13F
$$

WVZ022-031-240200-
North Central West Virginia

CITY           SKY/WX    TMP DP  RH WIND       PRES   REMARKS
CLARKSBURG     LGT RAIN  56  47  71 S3        30.24R
MORGANTOWN     CLOUDY    62  40  44 SE14G20   30.24R
$$

WVZ025-035-042-045-240200-
Southern West Virginia

CITY           SKY/WX    TMP DP  RH WIND       PRES   REMARKS
BECKLEY        CLOUDY    49  44  83 SE16G25   30.17S
LOGAN          CLOUDY    54  46  76 SE17G26   30.09F
BLUEFIELD      LGT RAIN  48  43  82 E12G29    30.17S
LEWISBURG      CLOUDY    49  47  92 E8        30.22F
$$

WVZ047-240200-
Northern Mountains of West Virginia

CITY           SKY/WX    TMP DP  RH WIND       PRES   REMARKS
ELKINS         RAIN      50  48  93 CALM      30.24S FOG
$$

WVZ052-240200-
Eastern Panhandle of West Virginia

CITY           SKY/WX    TMP DP  RH WIND       PRES   REMARKS
MARTINSBURG    FAIR      59  42  53 SE8       30.33R
PETERSBURG     MOCLDY    61  42  50 SE13      30.27R
$$




USA.gov is the U.S. government's official web portal to all federal, state and local government web resources and services.